#timestamp,LO_Frequency,Hit,StdDev 
1629572415.6,286046997.6,N
1629572435.4,286046997.9,N
1629572455.2,286046997.5,N
1629572475.1,286046996.6,N
1629572476.0,286046996.6,N
1629572495.8,286046997.0,N
1629572515.6,286046996.6,N
1629572535.5,286046996.8,N
1629572555.3,286046996.8,N
1629572575.1,286046998.8,N
1629572595.9,286046998.8,N
1629572615.7,286046999.4,N
1629572635.5,286046999.3,N
1629572655.4,286046998.9,N
1629572675.2,286046999.3,N
1629572695.0,286046996.5,N
1629572695.9,286046996.5,N
1629572715.8,286046997.7,N
1629572735.6,286046999.3,N
1629572755.4,286046998.4,N
1629572775.3,286046996.5,N
1629572795.1,286046996.7,N
1629572815.8,286046997.2,N
1629572835.7,286047000.7,N
1629572855.5,286046998.8,N
1629572875.3,286046998.8,N
1629572895.2,286047000.7,N
1629572915.9,286047000.3,N
1629572935.7,286046998.1,N
1629572955.6,286046999.3,N
1629572975.4,286046999.6,N
1629572995.2,286046997.3,N
1629573015.1,286046997.6,N
1629573016.0,286046997.6,N
1629573035.8,286046997.4,N
1629573055.6,286046997.5,N
1629573075.5,286046997.4,N
1629573095.3,286046996.5,N
1629573115.1,286046995.0,Y
1629573135.9,286046996.8,P
1629573155.7,286047001.1,N
1629573175.5,286046999.1,N
1629573195.4,286046999.5,N
1629573215.2,286046998.6,N
1629573235.0,286046998.4,N
1629573235.9,286046998.4,N
1629573255.8,286046999.2,N
1629573275.6,286046998.9,N
1629573295.4,286047000.8,N
1629573315.3,286046998.9,N
1629573335.1,286046998.8,N
1629573355.8,286046999.1,N
1629573375.7,286046996.9,Y
1629573395.5,286046998.1,P
1629573415.3,286046998.7,N
1629573435.2,286046997.2,P
1629573455.0,286046995.4,Y
1629573455.9,286046995.4,P
1629573475.7,286046999.4,N
1629573495.6,286046998.5,N
1629573515.4,286046997.2,N
1629573535.2,286046998.0,N
1629573555.1,286046996.1,Y
1629573556.0,286046996.1,P
1629573575.8,286046996.9,P
1629573595.7,286046998.5,N
1629573615.5,286046998.2,N
1629573635.3,286046998.8,N
1629573655.1,286046999.3,N
1629573675.9,286046998.5,N
1629573695.7,286046999.6,N
1629573715.6,286046999.0,N
1629573735.4,286046996.7,Y
1629573755.2,286046998.3,P
1629573775.1,286046998.5,P
1629573776.0,286046998.5,P
1629573795.8,286047001.1,Y
1629573815.6,286047000.2,P
1629573835.5,286047002.7,N
1629573855.3,286046998.6,N
1629573875.1,286046998.4,N
1629573895.9,286047002.4,N
1629573915.7,286047002.5,N
1629573935.5,286047004.2,N
1629573955.4,286047002.9,N
1629573975.2,286047005.6,N
1629573995.0,286047005.3,N
1629573995.9,286047005.3,N
1629574015.8,286047003.4,N
1629574035.6,286047004.0,N
1629574055.4,286047003.5,N
1629574075.3,286047001.5,N
1629574095.1,286047003.9,N
1629574096.0,286047003.9,N
1629574115.8,286047001.7,N
1629574135.7,286047003.5,N
1629574155.5,286047003.2,N
1629574175.3,286047005.5,N
1629574195.2,286047005.3,N
1629574215.9,286047003.1,N
1629574235.7,286047003.1,N
1629574255.6,286047002.9,N
1629574275.4,286047003.0,N
1629574295.2,286047003.2,N
1629574315.1,286047003.3,N
1629574316.0,286047003.3,N
1629574335.8,286047003.7,N
1629574355.6,286047004.8,N
1629574375.5,286047003.3,N
1629574395.3,286047006.9,Y
1629574415.1,286047004.0,P
1629574435.9,286047004.0,P
1629574455.7,286047002.0,P
1629574475.5,286047000.3,N
1629574495.4,286046998.2,N
1629574515.2,286046998.5,N
1629574535.0,286046998.5,N
1629574535.9,286046998.5,N
1629574555.8,286047001.0,N
1629574575.6,286047001.0,N
1629574595.4,286047000.2,N
1629574615.3,286047004.0,N
1629574635.1,286047003.8,N
1629574636.0,286047003.8,N
1629574655.8,286047004.2,N
1629574675.7,286047001.3,N
1629574695.5,286046999.8,N
1629574715.3,286047000.5,N
1629574735.2,286047000.3,N
1629574755.9,286046998.6,N
1629574775.7,286047000.7,N
1629574795.6,286047001.2,N
1629574815.4,286046998.5,N
1629574835.2,286047000.9,N
1629574855.1,286047001.1,N
1629574856.0,286047001.1,N
1629574875.8,286047000.2,N
1629574895.6,286046999.9,N
1629574915.5,286047002.7,N
1629574935.3,286047002.5,N
1629574955.1,286047001.2,N
1629574975.9,286046998.9,N
1629574995.7,286046999.3,N
1629575015.5,286046999.6,N
1629575035.4,286046996.8,N
1629575055.2,286046998.2,N
1629575075.0,286046999.7,N
1629575075.9,286046999.7,N
1629575095.8,286047000.3,N
1629575115.6,286047000.5,N
1629575135.4,286047001.1,N
1629575155.3,286046998.6,N
1629575175.1,286046998.6,N
1629575195.8,286047000.1,N
1629575215.7,286047000.0,N
1629575235.5,286047000.4,N
1629575255.3,286047002.3,N
1629575275.2,286047002.3,N
1629575295.9,286046999.8,N
1629575315.7,286047002.0,N
1629575335.6,286047002.7,N
1629575355.4,286047000.2,N
1629575375.2,286047002.5,N
1629575395.1,286047002.6,N
1629575396.0,286047002.6,N
1629575415.8,286046999.9,N
1629575435.6,286046998.6,N
1629575455.5,286046998.8,N
1629575475.3,286047001.2,N
1629575495.1,286047000.2,N
1629575515.9,286047000.1,N
1629575535.7,286046999.7,N
1629575555.5,286047000.5,N
1629575575.4,286047000.1,N
1629575595.2,286047000.9,N
1629575615.0,286047002.4,N
1629575615.9,286047002.4,N
1629575635.8,286047002.8,N
1629575655.6,286047002.0,N
1629575675.4,286047003.8,N
1629575695.3,286047006.0,Y
1629575715.1,286047004.3,P
1629575735.8,286047004.1,N
1629575755.7,286047001.9,N
1629575775.5,286047001.0,N
1629575795.3,286047000.6,N
1629575815.2,286047002.6,N
1629575835.0,286047002.7,N
1629575835.9,286047002.7,N
1629575855.7,286046999.9,N
1629575875.6,286046998.7,N
1629575895.4,286046998.6,N
1629575915.2,286047001.2,N
1629575935.1,286047001.1,N
1629575936.0,286047001.1,N
1629575955.8,286046999.8,N
1629575975.6,286047002.7,N
1629575995.5,286046999.8,N
